Dewpoint
31 25 20 18 17 14 13 11 11 11 15 11 18 16 16 17 17 20 22 23 22 18 14 15 14 12 12 11 15 19 19 22 19 16 19 22 22 22 22 25 26 28 26 37 39 46 50 53 56 56 57 58 58 59 59 59 60 60 60 61 61 61 61 61 61 61 61 60 60 59 60 60 60 61 62 62 62 62 62 64 64 64 64 63 62 62
19 22 22 19 16 13 12 10 9 13 11 10 14 15 11 24 12 18 18 21 22 19 15 14 14 15 13 12 12 17 19 19 19 18 19 21 21 23 26 26 29 28 45 44 42 44 49 52 54 55 56 55 57 57 58 58 59 60 60 60 61 61 61 61 61 61 61 61 61 60 60 60 60 60 61 61 62 63 62 62 64 64 63 63 62 62
21 19 18 17 15 16 11 10 11 13 19 15 15 16 16 17 23 20 20 21 21 18 11 13 13 13 13 14 14 13 18 19 19 19 18 18 21 21 23 25 27 30 45 40 39 42 43 47 50 52 54 56 56 56 57 58 58 59 60 60 60 61 61 60 60 60 60 60 60 60 59 59 58 60 60 61 61 63 63 62 63 63 63 63 62 62
23 22 17 15 15 15 16 11 14 23 25 20 17 18 19 25 18 22 19 21 19 13 22 22 19 20 18 15 14 14 12 13 19 19 20 20 18 19 20 24 26 28 42 39 37 38 39 43 42 44 46 52 55 55 55 56 58 59 59 60 60 60 61 60 60 59 60 60 60 60 60 60 59 58 59 61 61 61 62 62 62 63 63 63 63 63
20 24 23 22 17 15 14 17 14 13 13 27 32 24 20 27 20 18 18 19 21 20 24 18 21 13 15 12 12 12 14 14 15 20 21 28 30 30 40 37 37 29 38 38 36 36 37 41 40 40 42 43 47 49 54 55 56 57 58 59 60 60 60 60 59 59 59 59 59 60 57 57 57 58 57 58 59 59 61 62 62 62 62 63 64 64
19 21 28 20 23 15 20 14 21 26 13 20 31 31 24 20 19 20 20 15 17 20 22 21 9 17 14 10 10 9 12 14 21 24 25 27 31 33 31 33 37 40 38 39 36 35 36 39 40 41 42 42 43 44 48 54 55 56 57 58 59 59 59 59 59 59 59 59 59 58 58 56 56 56 56 56 56 57 58 58 59 63 63 64 64 64
20 23 31 23 22 27 25 17 26 25 16 19 18 27 21 19 24 24 22 26 16 12 23 20 8 12 17 10 9 13 16 15 21 23 22 24 25 30 30 30 31 33 35 37 35 36 36 37 38 40 41 42 42 42 45 50 53 54 56 57 58 58 58 59 59 59 59 58 58 57 57 56 56 56 55 55 56 57 57 58 58 58 60 62 63 63
21 21 27 32 26 29 26 16 26 16 17 15 33 38 26 29 28 27 25 28 27 25 25 20 25 13 14 14 17 16 15 15 17 19 21 20 21 25 29 30 31 32 34 37 36 35 35 38 38 38 41 42 41 42 43 45 48 51 53 55 57 57 57 57 58 58 58 58 56 55 55 56 55 55 54 55 56 56 55 56 57 59 60 61 62 61
24 27 31 31 31 26 21 23 32 22 21 25 33 40 28 26 31 31 28 24 25 22 20 20 28 10 15 16 15 13 12 13 11 14 19 18 20 26 29 33 38 39 41 43 43 41 38 37 38 37 38 40 42 43 43 44 44 47 49 51 53 55 55 56 56 57 57 56 56 56 55 54 54 55 54 54 54 54 54 54 54 55 56 57 58 58
31 32 29 33 28 22 29 29 35 32 17 33 36 35 37 36 33 32 23 25 19 14 18 18 24 10 15 24 14 14 13 13 12 9 12 19 24 30 32 36 36 39 40 40 40 41 41 40 39 41 44 43 45 45 44 44 44 45 47 49 52 52 53 55 55 56 55 54 55 55 54 54 53 52 52 53 53 54 54 54 54 55 55 56 58 57
29 31 30 33 28 33 28 29 36 34 35 34 36 31 31 30 28 22 22 21 17 13 20 26 25 21 14 21 16 15 17 8 9 18 25 31 32 34 36 36 37 39 42 43 41 40 43 44 45 44 44 45 47 46 45 45 46 46 47 49 50 51 52 54 54 54 54 54 53 54 54 53 53 53 53 52 52 52 53 53 53 54 54 54 55 57
32 29 33 35 31 30 29 34 35 37 35 35 31 27 24 20 20 17 17 18 14 16 19 19 25 27 9 16 21 10 9 13 15 18 24 27 30 33 33 32 32 36 40 41 43 42 43 43 43 44 45 47 47 47 47 47 48 48 48 49 50 50 52 54 54 53 54 54 52 52 52 53 53 53 54 55 53 52 52 53 54 55 54 54 55 55
30 30 34 37 34 31 35 26 26 35 35 34 26 20 19 19 18 13 15 12 15 14 13 15 23 17 14 10 6 4 6 11 20 20 23 27 30 32 33 34 36 37 38 41 43 43 43 44 44 45 46 47 47 48 48 48 48 49 49 49 50 51 52 53 53 52 53 53 53 53 53 53 53 55 56 56 54 53 54 55 55 54 54 55 55 56
28 35 34 35 34 31 38 20 22 20 26 28 20 20 17 17 12 9 14 13 13 15 19 16 20 12 16 11 12 9 5 9 22 28 29 28 29 32 35 35 37 37 39 41 43 43 44 45 46 46 47 48 48 49 50 50 50 50 50 51 52 51 50 50 51 51 52 52 54 55 54 54 54 55 55 55 53 53 54 55 54 54 55 55 55 54
24 21 24 30 25 32 30 33 24 23 23 23 26 22 20 17 13 7 13 11 13 17 15 20 11 18 9 9 17 16 21 21 21 27 30 30 32 35 35 36 36 37 40 41 42 43 44 45 45 47 48 48 49 50 50 51 51 50 51 51 51 50 50 50 50 51 52 54 55 56 56 56 56 55 55 54 54 54 53 53 53 52 53 53 52 52
21 22 33 36 37 36 30 36 36 33 25 29 33 31 20 24 20 15 19 18 17 13 13 12 12 17 13 20 17 19 21 20 24 24 25 26 31 35 33 34 33 36 38 40 40 41 43 43 45 46 47 47 48 49 50 50 51 51 51 51 51 51 51 52 52 52 53 55 55 55 55 55 55 54 54 54 53 52 52 51 52 52 52 51 51 51
20 17 34 37 36 30 33 34 34 34 19 24 24 21 25 28 21 19 20 17 14 12 15 20 14 18 16 11 18 20 17 19 20 22 23 25 31 34 35 35 34 37 39 40 42 42 42 42 44 45 45 46 48 48 49 49 50 51 51 52 51 51 51 52 52 52 52 53 52 53 54 54 54 53 52 51 50 51 51 51 50 50 50 49 49 50
17 27 32 35 31 34 33 32 37 35 32 24 18 25 30 30 27 17 9 13 12 9 11 15 11 7 7 10 17 16 15 16 17 19 17 25 32 29 36 34 37 39 40 41 42 42 42 43 44 45 45 45 46 47 47 47 47 48 49 50 51 51 51 51 51 51 51 51 51 51 51 51 51 51 50 49 50 50 50 50 49 49 48 48 49 48
27 20 28 31 34 33 38 37 30 35 33 28 26 35 19 14 13 12 8 7 4 3 7 9 9 9 12 15 8 13 13 15 14 17 16 27 28 31 37 35 37 39 39 39 41 42 43 43 44 45 44 45 45 45 45 46 46 46 46 47 48 48 48 48 48 48 48 48 49 49 49 49 49 48 48 49 48 47 47 47 47 47 47 47 47 47
26 20 25 32 32 32 32 30 21 23 33 35 32 24 31 18 19 14 12 17 21 10 -0 10 5 11 21 15 10 10 12 15 12 15 14 24 26 31 34 34 36 38 39 40 41 42 43 43 43 43 43 44 45 45 45 46 46 46 45 45 46 46 46 46 46 46 46 47 47 47 47 46 46 46 46 46 46 46 47 47 47 47 46 46 45 45
20 28 24 28 34 31 22 25 23 22 22 20 19 16 19 23 24 20 20 15 13 11 9 7 8 19 23 13 9 4 8 11 13 16 19 22 24 31 32 34 37 39 40 41 42 43 43 43 42 43 42 42 42 43 45 45 44 44 45 44 45 45 45 44 44 45 45 45 46 45 45 46 45 45 45 45 45 45 45 44 44 44 44 43 42 42
23 17 26 26 24 24 28 35 34 35 25 21 19 20 17 19 14 12 15 19 16 10 9 4 11 15 23 17 16 12 18 22 27 21 23 23 29 33 34 36 39 41 41 42 42 42 41 41 42 42 42 41 42 42 42 43 43 43 43 43 44 44 43 43 44 44 44 43 44 44 44 44 43 44 44 43 43 43 42 41 41 41 41 41 41 41
31 31 28 26 26 26 35 35 35 35 34 34 29 24 26 22 18 14 12 19 15 17 15 19 8 21 28 23 22 18 17 21 24 26 30 30 31 34 37 40 41 41 41 41 41 41 41 40 40 40 41 42 42 42 42 42 43 42 41 42 42 42 41 42 42 42 43 43 43 43 42 42 41 41 40 40 39 39 39 39 39 39 39 39 39 39
34 29 27 26 27 30 32 34 35 35 36 29 30 31 27 19 19 18 17 23 19 15 6 11 5 15 24 26 23 25 26 26 25 24 26 29 32 37 39 40 40 40 40 40 41 41 41 40 39 41 41 42 42 41 42 43 42 42 41 41 41 40 40 40 41 41 42 41 41 41 40 40 39 39 38 38 38 38 38 38 38 38 38 39 39 39
19 25 25 25 24 24 25 29 28 31 33 26 24 26 29 31 27 25 22 21 15 21 18 15 9 12 27 29 30 25 27 23 22 24 26 31 35 37 38 40 40 39 39 39 39 40 40 39 39 41 42 43 42 41 41 42 41 40 40 39 39 39 38 39 39 40 41 40 40 39 39 38 38 37 37 37 36 36 36 36 37 37 38 37 37 37
24 27 25 21 18 16 17 18 20 24 25 25 28 26 30 31 28 18 16 15 11 20 16 12 14 18 17 22 24 24 23 20 21 26 24 32 36 36 38 39 38 38 37 37 38 38 38 38 41 42 41 42 41 41 40 39 39 39 38 38 38 38 37 38 38 39 40 40 39 39 38 37 36 35 34 34 35 35 35 36 36 35 35 35 37 36
23 27 21 20 19 17 18 21 24 29 26 24 25 26 27 29 29 24 20 20 16 22 18 18 17 18 13 13 17 19 21 15 19 23 21 25 34 37 37 38 38 38 37 37 37 37 39 40 41 41 41 41 40 39 39 38 39 38 37 37 37 37 37 38 39 39 39 38 37 37 36 35 34 34 34 34 34 35 35 35 35 34 35 35 36 35
27 23 25 23 22 20 21 24 26 27 24 24 24 24 27 27 27 26 22 18 19 20 18 23 23 20 16 16 16 17 19 19 20 22 22 26 34 38 38 38 38 37 36 37 37 38 38 39 40 40 40 39 39 38 37 37 37 37 37 36 36 36 37 38 38 38 37 37 36 35 34 34 33 33 33 33 34 34 34 34 33 33 33 33 34 35
25 20 26 24 24 24 30 29 29 27 25 24 25 24 25 28 27 26 25 24 24 20 15 19 24 21 17 16 15 16 19 17 17 18 23 27 35 38 38 37 36 36 36 37 37 38 38 38 40 40 39 39 38 37 36 37 37 36 36 35 35 35 35 36 36 36 35 35 35 34 33 33 33 32 32 32 32 33 33 33 32 32 32 32 32 34
21 22 25 25 23 24 31 32 33 28 26 26 26 26 26 28 27 26 24 24 24 23 23 20 26 24 22 19 15 17 22 21 26 27 30 31 34 37 37 36 35 35 36 36 37 38 37 39 40 40 39 38 38 37 37 37 36 36 36 35 34 34 34 35 35 34 34 34 34 33 32 33 32 32 31 32 32 32 32 31 31 31 31 32 32 32
23 21 25 24 22 23 29 28 28 31 30 25 27 28 28 28 28 27 25 24 25 24 23 24 25 25 28 23 20 31 30 28 28 26 26 30 34 36 36 35 34 34 34 35 35 36 37 40 40 40 38 38 37 36 36 36 36 36 35 34 33 33 33 34 34 34 33 33 32 32 31 32 32 31 32 31 32 31 31 31 31 31 31 32 32 32
25 25 25 24 21 19 28 25 27 27 25 26 27 30 30 29 26 26 25 25 23 22 23 24 22 21 22 27 21 29 26 23 23 25 27 32 34 34 35 35 34 33 33 34 34 36 38 40 40 39 38 37 37 36 36 36 36 35 34 34 33 34 34 34 34 33 33 33 32 32 32 32 32 31 31 31 31 31 31 31 31 31 31 31 31 31
27 27 23 23 20 19 25 27 25 23 20 20 23 29 31 29 27 27 27 27 26 25 23 23 20 20 21 26 22 27 23 22 22 25 26 30 32 33 34 34 34 34 33 34 34 36 38 39 39 38 38 37 36 36 36 35 34 34 34 33 33 34 34 34 33 33 32 32 32 32 32 31 31 31 31 31 30 30 30 29 29 29 29 30 29 28
29 27 25 26 19 26 23 25 25 20 15 15 20 28 31 29 28 26 26 27 27 27 23 21 20 21 23 25 23 23 24 23 22 25 25 26 30 32 33 33 34 34 34 35 35 36 38 38 38 37 37 36 35 35 34 34 34 33 33 33 33 33 33 33 32 32 31 31 31 30 31 30 30 30 30 29 29 28 28 28 28 27 27 27 27 26
26 26 25 27 23 24 25 24 20 15 15 20 34 31 30 28 28 27 26 26 26 26 25 23 23 23 27 26 25 23 23 22 23 25 28 31 31 32 32 33 33 34 35 36 36 37 38 38 37 35 34 34 34 33 33 33 33 33 32 32 33 33 32 32 31 31 30 30 29 29 29 29 29 28 27 27 26 26 26 26 25 26 26 26 27 27
26 24 26 25 29 28 25 23 15 14 21 33 31 29 30 28 27 29 28 27 26 26 27 26 24 24 26 28 26 26 25 23 22 24 26 30 33 33 32 33 34 35 36 36 36 37 37 37 35 34 34 33 33 33 33 33 33 32 32 32 32 31 31 31 30 30 29 29 28 28 28 28 27 27 26 26 25 25 26 25 25 26 27 27 28 27
27 26 26 25 28 24 24 24 21 26 24 25 28 29 27 26 27 26 24 23 25 26 27 26 26 25 26 27 30 31 30 26 24 24 27 30 33 33 33 35 34 35 36 35 37 37 36 36 34 34 33 33 33 33 33 32 32 31 31 31 30 30 29 29 29 28 28 28 27 27 27 26 26 25 24 25 25 25 26 26 26 27 27 27 27 27
32 25 25 24 25 26 24 23 23 22 20 21 23 29 31 31 29 30 23 21 27 24 27 26 25 24 27 28 31 30 28 24 23 24 25 30 32 35 36 36 35 35 35 35 34 34 34 33 33 33 33 32 31 31 32 31 31 30 30 29 29 28 27 27 27 27 26 26 26 26 25 25 25 24 24 23 25 25 24 25 24 24 26 25 26 27
35 34 30 24 25 25 24 22 21 20 21 24 25 27 31 29 31 29 23 21 21 24 26 26 25 25 25 28 31 28 26 25 25 23 28 30 32 34 34 33 33 33 33 33 34 33 32 32 32 31 31 31 31 30 30 30 30 29 28 28 27 27 26 26 26 25 25 25 25 25 25 24 24 23 23 23 23 24 24 24 24 26 24 25 24 26
29 28 27 26 21 24 23 21 20 21 22 26 31 29 29 30 31 26 19 18 22 24 26 26 25 25 26 29 30 27 26 25 24 24 33 33 34 32 32 33 32 32 31 31 31 31 31 30 30 30 29 29 29 29 29 29 29 28 27 27 26 25 24 24 24 23 23 24 24 24 23 22 23 22 21 20 21 21 22 23 25 23 22 24 25 26
26 26 26 25 24 26 26 21 21 22 24 31 31 30 29 32 26 22 18 20 28 25 25 26 26 27 27 29 29 28 27 26 29 34 31 31 31 31 31 31 31 31 31 30 30 30 29 29 29 28 28 28 28 28 28 28 27 27 26 25 24 23 22 22 22 22 22 23 22 21 21 21 20 20 20 20 21 21 22 22 22 22 21 21 23 22
27 26 26 26 24 23 25 22 21 22 27 33 30 31 32 27 21 19 21 31 31 29 29 27 27 28 28 30 30 28 32 33 33 32 31 31 31 30 30 30 30 30 30 30 30 28 27 27 27 27 27 26 27 28 28 28 27 26 24 23 22 21 21 20 20 21 21 20 19 20 19 19 19 20 20 20 21 19 19 20 21 21 20 20 21 20
27 25 24 24 23 23 22 21 21 19 23 33 32 28 29 24 24 26 30 30 34 31 31 32 32 33 31 31 32 34 32 32 32 31 30 30 30 29 29 30 30 29 29 28 27 27 27 26 25 25 25 25 26 27 27 26 25 24 22 21 21 20 20 20 19 20 20 19 18 18 18 19 19 19 19 19 19 18 18 19 18 18 20 20 20 22
29 24 26 26 25 22 22 21 21 25 30 32 28 27 29 30 35 32 31 29 31 33 33 32 33 34 32 33 33 32 32 32 31 30 30 29 29 29 29 29 29 29 28 28 27 27 26 24 23 23 23 24 25 25 26 25 23 22 21 20 20 19 18 18 18 17 16 17 17 17 17 17 17 17 18 17 17 18 18 17 18 20 22 24 24 23
29 26 26 25 27 24 23 24 28 31 30 31 29 30 30 34 34 34 31 30 30 31 32 33 33 33 34 33 33 33 31 30 31 31 30 29 29 28 28 28 28 28 28 27 27 26 24 23 22 22 21 22 22 23 23 23 22 21 20 19 18 15 16 16 16 15 15 14 15 16 15 14 15 16 16 15 16 17 19 18 17 19 21 21 20 20
29 30 29 30 29 28 28 29 30 30 30 32 33 34 31 33 33 33 33 33 33 32 31 33 33 33 32 33 33 31 31 32 31 31 29 29 28 27 27 27 27 27 27 27 26 24 23 21 21 20 20 21 21 22 23 22 21 19 19 18 16 14 15 14 13 13 13 12 13 13 14 13 14 14 15 17 18 17 17 17 17 17 17 17 16 15
30 30 30 29 30 28 26 30 30 29 30 31 34 32 32 33 33 33 33 33 32 31 31 31 33 33 33 33 32 32 32 32 31 30 30 29 27 27 27 26 26 27 26 26 25 24 21 20 20 19 19 20 21 22 22 20 19 18 17 15 14 14 13 12 11 12 12 10 12 12 12 13 14 15 16 15 14 14 15 15 14 14 15 14 13 13
29 31 30 29 30 29 27 28 30 31 31 32 33 30 30 31 31 30 31 31 31 29 30 30 32 32 31 32 32 32 32 31 31 30 29 28 27 26 26 26 25 25 25 25 24 23 21 20 19 19 19 20 21 22 21 19 17 15 13 12 12 10 10 11 10 9 9 9 10 11 10 10 14 13 11 11 12 13 14 13 12 12 13 13 13 12
30 32 31 31 30 29 29 28 29 31 30 30 30 31 33 34 31 30 29 30 29 29 29 29 29 30 31 32 32 32 31 31 30 30 29 28 27 26 26 25 25 24 23 23 22 22 22 21 19 18 18 19 21 21 19 17 15 14 12 10 8 7 6 7 9 8 7 8 9 8 11 10 10 11 10 10 11 10 11 12 12 12 11 11 12 14
31 30 30 31 30 29 29 30 29 28 28 30 30 31 32 31 31 31 30 31 29 29 28 29 29 28 29 29 32 32 32 31 30 30 29 28 27 26 25 24 22 21 21 21 21 21 20 20 19 17 17 19 20 20 17 15 13 11 9 7 6 5 3 5 5 5 6 8 7 7 8 9 9 8 9 9 9 10 11 15 16 18 13 11 19 19
30 29 30 30 29 28 30 31 31 31 30 31 32 32 34 32 31 31 31 30 30 29 28 28 28 28 29 28 28 31 31 31 30 30 29 28 27 25 24 23 21 20 19 18 18 18 18 18 17 16 16 18 20 18 16 14 11 8 5 4 4 3 3 4 5 6 7 7 6 7 6 7 8 9 11 11 11 10 10 9 11 14 17 17 18 17